This demonstration page uses our WeatherBlox Daily Observations layout. Learn more.

Left ArrowRight Arrow

53.62937, 11.41316

Hourly Observations for February 2, 2018

Temp ( °F °C ) Dew Point ( °F °C ) Humidity (%) Winds ( mph kmh ) Pressure ( in mb ) Visibility ( mi km ) Precip ( " mm )
5:20 am 05:20 Cloudy 36 2 32 0 87 87 SSW 14 22 29.50 999 30 48 N/A
5:50 am 05:50 Cloudy 36 2 32 0 87 87 S 12 19 29.50 999 30 48 N/A
6:20 am 06:20 Cloudy 36 2 32 0 87 87 S 12 19 29.50 999 30 48 N/A
6:50 am 06:50 Cloudy 36 2 32 0 87 87 S 10 17 29.50 999 30 48 N/A
7:20 am 07:20 Cloudy 36 2 32 0 87 87 S 9 15 29.50 999 30 48 N/A
7:50 am 07:50 Cloudy 36 2 32 0 87 87 S 9 15 29.50 999 30 48 N/A
8:20 am 08:20 Cloudy 36 2 32 0 87 87 S 8 13 29.50 999 30 48 N/A
8:50 am 08:50 Cloudy 37 3 32 0 81 81 S 10 17 29.50 999 30 48 N/A
9:20 am 09:20 Cloudy 37 3 32 0 81 81 S 10 17 29.50 999 30 48 N/A
9:50 am 09:50 Cloudy 37 3 32 0 81 81 S 12 19 29.53 1000 30 48 N/A
10:20 am 10:20 Cloudy 37 3 32 0 81 81 S 12 19 29.53 1000 30 48 N/A
10:50 am 10:50 Cloudy 37 3 32 0 81 81 S 12 19 29.53 1000 30 48 N/A
11:20 am 11:20 Cloudy 37 3 32 0 81 81 S 12 19 29.53 1000 30 48 N/A
11:50 am 11:50 Cloudy 37 3 32 0 81 81 S 9 15 29.53 1000 30 48 N/A
12:20 pm 12:20 Cloudy 37 3 32 0 81 81 S 9 15 29.53 1000 30 48 N/A
12:50 pm 12:50 Mostly Cloudy 39 4 32 0 75 75 S 9 15 29.53 1000 30 48 N/A
1:20 pm 13:20 Cloudy 39 4 32 0 75 75 S 9 15 29.53 1000 30 48 N/A
1:50 pm 13:50 Cloudy 39 4 32 0 75 75 S 9 15 29.53 1000 30 48 N/A
2:20 pm 14:20 Mostly Cloudy 39 4 34 1 81 81 S 9 15 29.53 1000 30 48 N/A
2:50 pm 14:50 Cloudy 39 4 34 1 81 81 S 8 13 29.53 1000 30 48 N/A
3:20 pm 15:20 Mostly Cloudy 39 4 34 1 81 81 S 8 13 29.53 1000 30 48 N/A
3:50 pm 15:50 Mostly Cloudy 37 3 34 1 87 87 S 7 11 29.53 1000 30 48 N/A
4:20 pm 16:20 Cloudy 37 3 34 1 87 87 S 6 9 29.53 1000 30 48 N/A
4:50 pm 16:50 Cloudy 37 3 36 2 93 93 S 6 9 29.56 1001 30 48 N/A
5:20 pm 17:20 Cloudy 37 3 36 2 93 93 S 6 9 29.56 1001 30 48 N/A
5:50 pm 17:50 Cloudy with Drizzle 37 3 36 2 93 93 SSW 6 9 29.56 1001 4 7 N/A

Powered by AerisWeather